Flag for Gabon Weather past 2 weeks in Franceville, Gabon

Now
77 °F

Passing clouds.


Feels Like: 79 °F
Forecast: 70 / 85 °F
Wind: No wind

Location: Brazzaville / Maya-Maya

Current Time: Oct 20, 2014 at 5:54:19 AM

Latest Report: Oct 20, 2014 at 4:00 AM


Visibility: 5 mi

Pressure: 29.92 "Hg

Humidity: 79%

Dew point: 70 °F

Location of FrancevilleLocation

Historic Weather in Franceville — Graph

°F

Franceville temperature yesterday

Maximum temperature yesterday: 86 °F (at 4:00 PM)
Minimum temperature yesterday: 75 °F (at 6:00 AM)
Average temperature yesterday: 80 °F

Past Weeks' High & Low Weather Summary

 TemperatureHumidityPressure
High95 °F (Oct 6, 4:00 PM)100% (Oct 11, 5:28 AM)30.04 "Hg (Oct 11, 5:28 AM)
Low70 °F (Oct 11, 5:28 AM)41% (Oct 6, 5:00 PM)29.77 "Hg (Oct 6, 4:00 PM)
Average79 °F75%29.91 "Hg
* Reported Oct 5 4:00 AM — Oct 20 4:00 AM, Franceville, Weather by CustomWeather, © 2014

Note: Actual official high and low records may vary slightly from our data, if they occured in-between our weather recording intervals... More about our weather records

Advertising

Franceville weather history for previous 24 hours

 ConditionsComfort  
Time TempWeatherWind HumidityBarometerVisibility
4:00 AM
Oct 20
77 °FPassing clouds.No wind79%29.92 "Hg5 mi
3:00 AM77 °FPassing clouds.2 mph79%29.92 "Hg5 mi
2:00 AM77 °FPassing clouds.5 mph79%29.92 "Hg5 mi
1:00 AM77 °FPassing clouds.2 mph79%29.92 "Hg5 mi
12:00 AM77 °FPassing clouds.5 mph79%29.95 "Hg5 mi
11:00 PM
Oct 19
79 °FClear.2 mph74%29.95 "Hg5 mi
10:00 PM79 °FClear.No wind74%29.95 "Hg5 mi
9:00 PM79 °FClear.5 mph74%29.95 "Hg5 mi
8:00 PM81 °FPassing clouds.5 mph66%29.92 "Hg5 mi
7:00 PM82 °FPassing clouds.5 mph66%29.89 "Hg5 mi
6:00 PM82 °FPassing clouds.5 mph66%29.86 "Hg5 mi
5:00 PM84 °FPassing clouds.9 mph62%29.86 "Hg5 mi
4:00 PM86 °FScattered clouds.7 mph59%29.83 "Hg5 mi
3:00 PM84 °FClear.12 mph58%29.86 "Hg5 mi
2:00 PM82 °FPassing clouds.9 mph66%29.92 "Hg5 mi
1:00 PM82 °FPartly sunny.12 mph66%29.92 "Hg5 mi
12:00 PM82 °FPartly sunny.9 mph66%29.95 "Hg5 mi
11:00 AM81 °FBroken clouds.7 mph70%29.98 "Hg4 mi
10:00 AM81 °FBroken clouds.7 mph66%30.01 "Hg4 mi
9:00 AM79 °FPartly sunny.9 mph74%30.01 "Hg4 mi
7:00 AM75 °FFog.5 mph83%29.98 "Hg2 mi
6:00 AM75 °FClear.3 mph78%29.92 "Hg4 mi
5:00 AM77 °FPassing clouds.5 mph79%29.92 "Hg5 mi
Weather by CustomWeather, © 2014

See weather overviewHow to use our weather pages